Regional Weather Roundup
Issued by NWS

Home | Current Version | Previous Version | Text Only | Print | Product List | Glossary Off
Versions: 1 2 3 4 5 6 7 8 9 10 11 12 13 14 15 16 17 18 19 20 21 22 23 24 25 26 27 28 29 30 31 32 33 34 35 36 37 38 39 40 41 42 43 44 45 46 47 48 49 50

000
ASUS43 KMPX 271610
RWRMN
WEATHER ROUNDUP FOR MINNESOTA
NATIONAL WEATHER SERVICE TWIN CITIES/CHANHASSEN MN
1000 AM CST TUE JAN 27 2015


NOTE: "FAIR" INDICATES FEW OR NO CLOUDS BELOW 12,000 FEET WITH NO
SIGNIFICANT WEATHER AND/OR OBSTRUCTIONS TO VISIBILITY. N/A MEANS
CURRENT SKY AND/OR WEATHER CONDITIONS ARE NOT AVAILABLE.

MNZ060>063-068>070-271700-
   Twin Cities Metro

CITY           SKY/WX    TMP DP  RH WIND       PRES   REMARKS
TWIN CITIES    CLOUDY    32  24  72 CALM      30.17R
ST PAUL        CLOUDY    32  25  75 E3        30.18R
CRYSTAL        CLOUDY    33  25  72 E5        30.15R WCI  29
LAKEVILLE      CLOUDY    30  27  86 E6        30.17R WCI  24
EDEN PRAIRIE   CLOUDY    34  26  72 SE5       30.15R WCI  30
SOUTH ST PAUL  CLOUDY    32  24  73 CALM      30.17R
LAKE ELMO      CLOUDY    32  27  80 SE3       30.17R
$$
MNZ001>005-007-008-013>017-022>024-027-028-271700-
   Northwest Minnesota

CITY           SKY/WX    TMP DP  RH WIND       PRES   REMARKS
BEMIDJI        CLOUDY    26  25  96 S8        30.08R WCI  17
HALLOCK        CLOUDY    27  25  93 S10       30.03F FOG     WCI  17
ROSEAU         CLOUDY    25  19  80 S5        30.06S HAZE    WCI  19
WARROAD        CLOUDY    23  19  86 S3        30.07S
THIEF RVR FALL CLOUDY    27  25  93 SE10      30.05F WCI  17
CROOKSTON      CLOUDY    27  27 100 S9        30.07F FOG     WCI  17
FOSSTON        CLOUDY    25  23  93 S8        30.07S WCI  16
DETROIT LAKES  CLOUDY    28  28 100 SE7       30.09R FOG     WCI  21
MOORHEAD       CLOUDY    28  28 100 S14       30.09S FOG     WCI  17
PARK RAPIDS    CLOUDY    28  25  88 S12       30.09R WCI  18
MAHNOMEN       CLOUDY    26  25  98 SE8       30.07S WCI  17
$$
MNZ006-009>011-018-025>026-271700-
   North Central Minnesota

CITY           SKY/WX    TMP DP  RH WIND       PRES   REMARKS
BAUDETTE       CLOUDY    24  22  91 S8        30.07S WCI  15
FLAG ISLAND    CLOUDY    23  21  93 S7        30.06R FOG     WCI  15
INTL FALLS     CLOUDY    24  21  88 S6        30.10R WCI  17
WASKISH        CLOUDY    27  27 100 SE5       30.09S WCI  21
BIG FORK       CLOUDY    27  23  86 S8        30.11R WCI  18
LONGVILLE      CLOUDY    28  25  86 S6        30.10R WCI  22
GRAND RAPIDS   CLOUDY    27  23  86 S8        30.11R WCI  18
CRANE LAKE     CLOUDY    23  21  93 S5        30.13R WCI  17
ORR            CLOUDY    25  19  80 S5        30.08R WCI  19
COOK           CLOUDY    23  21  93 S7        30.11R WCI  15
WALKER         CLOUDY    28  24  87 S5        30.10R WCI  22
$$
MNZ012-019>021-037-271700-
   Northeast Minnesota

CITY           SKY/WX    TMP DP  RH WIND       PRES   REMARKS
DULUTH         CLOUDY    26  22  84 S7        30.11R WCI  18
ELY            CLOUDY    25  21  86 S3        30.10S
HIBBING        CLOUDY    25  21  85 S3        30.11R
EVELETH        CLOUDY    27  23  86 SW7       30.12R WCI  19
DULUTH HARBOR  CLOUDY    28  25  86 CALM      30.18R
TWO HARBORS    PTSUNNY   28  23  80 CALM      30.12S
SILVER BAY     CLOUDY    27  21  80 CALM      30.12R
GRAND MARAIS     N/A     28  21  75 CALM      30.16R
G MARAIS ARPRT   N/A     21  16  79 CALM      30.09S
$$
MNZ029>031-032-039>041-046>048-054>057-064-271700-
   West Central Minnesota

CITY           SKY/WX    TMP DP  RH WIND       PRES   REMARKS
FERGUS FALLS   CLOUDY    27  27 100 S9        30.12R FOG     WCI  17
WHEATON        FOG       27  27 100 SE13      30.11S VSB 1/2 WCI  16
MORRIS         CLOUDY    28  28 100 SE14      30.10S FOG     WCI  17
ALEXANDRIA     CLOUDY    28  26  92 SE10      30.10S WCI  19
ELBOW LAKE     CLOUDY    28  28 100 SE14      30.09S FOG     WCI  16
WADENA         CLOUDY    27  25  93 SE8       30.09F WCI  18
GLENWOOD       CLOUDY    28  28 100 SE12      30.10F WCI  18
APPLETON       CLOUDY    30  28  93 SE8       30.11S FOG     WCI  23
BENSON         CLOUDY    30  28  93 S8        30.11F WCI  23
ORTONVILLE     FOG       28  27  93 SE9       30.10S VSB 1/4 WCI  20
MADISON        FOG       34  32  93 SE9       30.11R VSB 1/4 WCI  26
WILLMAR        CLOUDY    32  28  86 SE10      30.14S WCI  24
$$
MNZ033>034-036-042>043-049>051-058-059-271700-
   Central Minnesota

CITY           SKY/WX    TMP DP  RH WIND       PRES   REMARKS
ST CLOUD       CLOUDY    31  25  78 S6        30.14R WCI  25
SAUK CENTRE    CLOUDY    29  27  92 S10       30.12R WCI  20
PAYNESVILLE    CLOUDY    29  26  91 SE8       30.13S WCI  21
AITKIN         CLOUDY    32  25  74 S5        30.11R WCI  27
PINE RIVER     CLOUDY    28  25  86 S7        30.14R WCI  21
BRAINERD       CLOUDY    30  25  81 SE6       30.12R WCI  24
STAPLES        CLOUDY    28  25  86 S5        30.11R WCI  23
LONG PRAIRIE   CLOUDY    30  27  86 SE8       30.11R WCI  23
LITTLE FALLS   CLOUDY    32  27  80 S3        30.13S
LITCHFIELD     CLOUDY    34  30  86 CALM      30.14S
BUFFALO        CLOUDY    32  25  75 S3        30.16S
MAPLE LAKE     CLOUDY    33  28  83 SE3       30.15F
$$
MNZ037-044-045-052-053-271700-
   East Central Minnesota

CITY           SKY/WX    TMP DP  RH WIND       PRES   REMARKS
PRINCETON      CLOUDY    34  27  75 SE6       30.14S WCI  29
MORA           CLOUDY    32  25  74 SE5       30.16S WCI  27
CAMBRIDGE      CLOUDY    32  23  69 SE5       30.13S WCI  27
RUSH CITY      CLOUDY    30  24  77 CALM      30.17R
MOOSE LAKE     CLOUDY    28  23  80 CALM      30.13R
HINCKLEY       CLOUDY    30  27  86 CALM      30.15R
CLOQUET        CLOUDY    27  21  80 S3        30.13R
MCGREGOR       CLOUDY    30  27  86 SE5       30.13R WCI  25
$$
MNZ071>073-080-081-089-090-097-098-271700-
   Southwest Minnesota

CITY           SKY/WX    TMP DP  RH WIND       PRES   REMARKS
MONTEVIDEO     CLOUDY    30  30 100 S10       30.13R FOG     WCI  21
GRANITE FALLS  CLOUDY    30  28  95 SE9       30.14S FOG     WCI  21
CANBY          FOG       30  29  99 SE9       30.12R VSB 1/4 WCI  21
MARSHALL       CLOUDY    28  27  93 CALM      30.12S VSB 1
REDWOOD FALLS  CLOUDY    31  28  89 S8        30.14R WCI  23
OLIVIA         CLOUDY    30  28  93 SE6       30.14R WCI  24
PIPESTONE      FOG       28  28 100 SE7       30.07S VSB<1/4 WCI  21
WINDOM         CLOUDY    30  30 100 SE6       30.12S WCI  24
WORTHINGTON    CLOUDY    28  27  93 SE12      30.11F VSB 1/4 WCI  18
JACKSON        SUNNY     32  30  93 SE6       30.12F WCI  26
TRACY          FOG       31  30  98 SE8       30.11S VSB 1/2 WCI  23
SLAYTON        FOG       29  28  98 CALM      30.10S VSB<1/4
$$
MNZ065>067-074>077-082>085-091>093-271700-
   South Central Minnesota

CITY           SKY/WX    TMP DP  RH WIND       PRES   REMARKS
MANKATO        CLOUDY    34  25  69 SE6       30.15R WCI  29
NEW ULM        CLOUDY    32  27  80 CALM      30.15R
ST JAMES       CLOUDY    34  30  86 E3        30.16R
FAIRMONT       SUNNY     34  21  60 SE3       30.13S
GLENCOE        CLOUDY    34  30  85 E5        30.15R WCI  30
FARIBAULT      CLOUDY    34  27  75 CALM      30.16R
OWATONNA       CLOUDY    34  27  75 E3        30.16R
WASECA         CLOUDY    32  28  86 E3        30.17R
ALBERT LEA     CLOUDY    34  28  80 E3        30.15R
$$
MNZ078>079-086>088-094>096-271700-
   Southeast Minnesota

CITY           SKY/WX    TMP DP  RH WIND       PRES   REMARKS
ROCHESTER      CLOUDY    30  24  78 E7        30.15R WCI  23
RED WING       CLOUDY    32  25  74 E3        30.17R
STANTON        CLOUDY    33  26  77 E6        30.15R WCI  27
DODGE CENTER   CLOUDY    30  27  86 NE5       30.14R WCI  25
WINONA         CLOUDY    30  23  74 E3        30.19R
AUSTIN         CLOUDY    32  27  80 E6        30.15R WCI  26
PRESTON        CLOUDY    28  24  83 NE6       30.16R WCI  22
$$
ABBREVIATIONS USED IN REMARKS
   TC - TEMPERATURES IN CELSIUS
  WCI - WIND CHILL INDEX
   HX - HEAT INDEX
  VSB - VISIBILITY
$$


USA.gov is the U.S. government's official web portal to all federal, state and local government web resources and services.